Location: Unspecified
(0.0000°N, 0.0000°E)
Time: 14:26:14
(UTC+00:00)

Altair - Pass Details

Date: 18 March 2026
Orbit: 1502 x 1682 km, 47.2° (Epoch: 18 April)

Event Time Altitude Azimuth Distance (km) Brightness Sun altitude
Rises 18:41:08 0° 238° (WSW) 4,882 11.2 -8.3°
Reaches altitude 10° 18:44:36 10° 245° (WSW) 3,871 10.8 -9.2°
Maximum altitude 18:53:29 39° 310° (NW) 2,245 8.8 -11.4°
Drops below altitude 10° 19:02:06 10° 15° (NNE) 3,731 9.4 -13.5°
Sets 19:05:26 0° 24° (NNE) 4,689 9.8 -14.4°
